2019-087E (44842 NORAD) Tracking and Keplerian Element Data

This shows tracking and keplerian element data for the satellite.

Feedback or suggestion? Click here.




ElementValue
Catalog44842
Name2019-087E
Epoch Orbit636
Epoch Day18.20027868
Epoch Year2020
RAAN176.8674
Inclination97.3716
Eccentricity0.0013252
Argument of Perigee120.5329
Mean Anonmoly359.1131
Mean Motion15.21382631
Decay Rate7.25E-06
L11 44842U 19087E 20018.20027868 .00000725 00000-0 35334-4 0 9997
L22 44842 97.3716 176.8674 0013252 120.5329 359.1131 15.21382631 6361

Live tracking and technical data element details for 2019-087E (NORAD 44842). 2019-087E can be tracked NOW for your location showing map with azimuth and elevation plus other details from your city location.

Track the satellite on the map from your city or location and see movement details for azimuth, elevation, latitude, longitude, range, height, and movement on the map or in text.







IsCatalogInMostPopularTable: catalog: 44842, numindb: 8
Update: records affected: 1



GetName: 44842 2019-087E

Hit Count: updated at: Sat, 18 Jan 2020 18:07:48 GMT